Create Custom Reports and Graphics: Custom Report

Map - Northern Napa County

Map

15 Minute Data

Map - Southern Napa County

Map

15 Minute Data

Northeast Napa County

10 Stations

15 Minute Data | America/Los_Angeles
as of 5/9/26 7:32 AM PDT
Station Date Time Temp (°F) RH (%) Dew Pt (°F) Wind Spd (mph) Wind Dir (°) Wind Gust (mph) Latest Rain (In) Daily Rain (In) Daily Max Temp (°F) Daily Min Temp (°F)
Dollarhide 18A Remote 5/9/26 0730 55.6   6.1 95   5 54.1   4.6 - - - - - 57.7   5.2 45.3   2.0
Dollarhide 1AS Remote 5/9/26 0730 56.0   1.6 90   4 53.3   0.6 0.0   0.2 N | 0 0.0   2.0 - - 57.1   1.0 47.8   1.7
Angwin 5/9/26 0730 66.4   7.5 59   17 51.6   0.1 4.1   0.9 NNW | 346 7.7   0.6 0.00 0.00 67.0   4.2 60.1   4.0
Lower Angwin (Pioneer) 5/9/26 0730 68.0   15.5 - - 2.4   2.1 NE | 52 3.2   1.8 - - 68.6   15.3 50.1   7.3
Lower Chiles Valley (Brown) 5/9/26 0730 52.5   2.2 99   1 52.3   2.0 1.2   0.3 W | 269 3.4   1.6 0.00 0.00 53.4   1.0 47.8   2.3
Deer Park 5/9/26 0730 54.2   3.7 86   14 49.9   0.3 0.8   2.6 NNE | 13 1.6   5.3 0.00 0.00 54.3   2.0 49.7   0.6
Moss Creek Vineyard/Reservior 5/9/26 0730 55.1   3.7 97   2 54.2   3.0 - - - 0.00 0.00 56.1   0.0 49.4   1.2
Montesol 5/9/26 0730 59.1   6.2 - - - - - 0.00 0.00 59.1   6.0 50.9   7.4
Dollarhide Base 5/9/26 0730 59.4   4.5 83   11 54.1   1.0 0.4   2.7 WSW | 247 1.6   4.2 0.00 0.00 60.7   2.0 51.4   2.1
Pope Valley (Weeks Lake) 5/9/26 0730 56.7   4.7 96   4 55.4   3.4 0.4   1.5 ENE | 76 1.3   3.1 0.00 0.00 58.3   6.0 46.8   0.8
Max     68.0 99 55.4 4.1 - 7.7 0.00 0.00 68.6 60.1
Avg     58.3 88 53.1 1.3 - 2.7 0.00 - - -
Min     52.5 59 49.9 0.0 - 0.0 0.00 0.00 53.4 45.3

Northern & Central Napa County

32 Stations

15 Minute Data | America/Los_Angeles
as of 5/9/26 7:32 AM PDT
Station Date Time Temp (°F) RH (%) Dew Pt (°F) Wind Spd (mph) Wind Dir (°) Wind Gust (mph) Latest Rain (In) Daily Rain (In) Daily Max Temp (°F) Daily Min Temp (°F)
Calistoga-North 5/9/26 0730 50.6   1.7 99   3 50.2   0.8 - - - 0.00 0.00 54.2   0.6 48.3   3.8
Stags Leap Dist (Chimney Rock) 5/9/26 0730 51.8   2.4 100   7 51.7   0.3 0.6   0.0 S | 191 1.9   0.1 0.00 0.00 52.1   2.2 45.7   7.1
Diamond Mtn (McEachran) 5/9/26 0730 51.9   0.7 95   2 50.6   1.1 - - - - - 54.2   1.6 50.2   0.5
Diamond Mtn (Schramsberg) 5/9/26 0730 53.7   3.6 92   8 51.5   1.4 - - - 0.00 0.00 55.4   3.5 50.0   0.8
Stags Leap Dist (Silverado Vineyards) 5/9/26 0730 51.0   2.3 95   5 49.7   0.9 0.2   0.2 WNW | 286 1.2   0.4 0.00 0.00 51.5   2.0 46.8   5.4
Oak Knoll-East (Ranch 53) 5/9/26 0730 52.1   1.7 95   1 50.6   1.3 0.0   1.4 W | 266 0.7   2.5 0.00 0.00 52.4   1.6 47.7   4.9
Rutherford-North (Mee Ln) 5/9/26 0730 53.1   2.8 89   3 50.0   1.9 0.1   2.1 ESE | 119 0.9   3.7 0.00 0.00 53.7   2.3 44.6   4.8
Frisinger Napa-NW 5/9/26 0730 51.6   1.9 96   5 50.5   0.4 0.4   1.8 SSW | 212 1.5   2.0 0.00 0.00 51.6   2.0 47.3   5.5
Napa-North (Ranch 29) 5/9/26 0730 52.4   0.5 100   0 52.4   0.5 0.2   2.7 WNW | 290 1.4   4.6 0.00 0.00 52.8   1.3 48.8   3.1
St. Helena (NVV Office) 5/9/26 0730 55.8   2.0 - - 0.9   0.2 NE | 44 1.9   2.0 0.00 0.00 57.4   3.1 49.7   3.4
Crossroads Ranch 5/9/26 0730 52.0   2.0 94   4 50.4   0.7 0.3   2.5 E | 94 1.4   3.9 0.00 0.00 52.6   1.5 47.8   5.2
Oakville 5/9/26 0730 51.5   2.2 97   5 50.6   0.6 0.4   1.5 SE | 146 1.5   2.5 0.00 0.00 51.9   1.9 47.4   5.2
OV561-East 5/9/26 0730 51.5   2.6 - - - - - - - 53.3   1.1 48.0   5.4
OV518-West 5/9/26 0730 51.7   2.3 - - - - - - - 52.8   1.3 48.1   4.9
Napa-NW (Ranch 54) 5/9/26 0730 51.4   2.5 100   6 51.4   0.7 0.5   0.4 SSW | 208 1.4   0.3 0.00 0.00 52.3   1.8 48.8   3.9
Calistoga (Ranch 78) 5/9/26 0730 57.0   4.0 84   5 52.2   2.5 1.1   0.9 NNE | 16 3.0   1.7 0.00 0.00 57.0   4.0 47.8   4.4
Yountville-SE (Ranch 85) 5/9/26 0730 51.8   1.7 100   6 51.8   0.0 0.2   1.6 WNW | 292 1.1   2.3 0.00 0.00 52.9   1.2 48.0   4.9
Yountville-South (Ranch 87) 5/9/26 0730 51.4   2.2 100   5 51.3   0.9 0.0   0.7 W | 279 0.4   1.7 0.00 0.00 52.5   1.5 47.8   4.9
Rutherford Hill Estate 5/9/26 0730 52.2   0.6 99   1 52.0   0.3 0.7   0.9 SE | 124 2.0   2.8 0.00 0.00 53.0   0.3 50.2   1.2
Rutherford (STS) 5/9/26 0730 55.0   1.5 87   2 51.1   0.8 0.8   1.6 ESE | 115 1.6   2.9 0.00 0.00 55.1   1.5 47.0   5.9
Borreo (Soda Canyon) 5/9/26 0730 50.4   0.3 98   0 49.8   0.3 0.2   1.1 S | 182 1.7   0.8 0.00 0.00 51.0   0.5 45.4   4.8
Oakville-NE (Ranch 88) 5/9/26 0730 51.6   1.9 99   4 51.2   0.7 0.0   0.2 N | 0 0.0   5.0 0.00 0.00 52.1   1.6 46.5   6.4
Soda Canyon 5/9/26 0730 52.8   0.2 92   2 50.5   0.3 0.8   0.1 SSW | 195 2.1   0.6 0.00 0.00 53.1   0.5 46.8   5.5
Silver Oak OV 5/9/26 0730 52.5   1.4 95   3 51.2   0.6 0.3   2.6 ESE | 102 1.1   4.8 0.00 0.00 52.8   1.2 47.4   5.4
Tiara Fria (East St. Helena) 5/9/26 0730 55.4   1.9 82   6 50.1   0.2 0.3   2.2 NNE | 17 1.2   5.4 0.00 0.00 56.0   2.0 50.0   3.0
To Kalon Remote (TKKE) 5/9/26 0730 52.0   2.1 - - - - - - - 52.6   1.7 47.0   6.0
To Kalon 5/9/26 0730 51.9   1.7 98   2 51.5   1.1 0.1   0.6 SE | 136 0.9   1.8 0.00 0.00 52.6   1.1 47.4   5.2
To Kalon Remote (TKN5) 5/9/26 0730 51.9   2.2 - - - - - - - 52.6   1.7 47.5   5.6
St. Helena-North 5/9/26 0730 52.8   0.6 89   6 49.8   1.3 0.2   1.2 NNW | 331 2.0   2.4 0.00 0.00 54.8   0.9 49.0   3.8
Twomey Calistoga 5/9/26 0730 54.2   1.3 100   12 54.3   4.7 0.2   2.1 WNW | 299 1.8   3.9 0.00 0.00 54.2   1.3 45.8   5.1
Wappo Hill Floor 5/9/26 0730 50.0   2.7 100   2 50.0   2.2 0.8   0.1 SW | 214 1.8   1.6 0.00 0.00 51.4   1.8 44.9   6.5
Yountville (Ranch 67) 5/9/26 0730 51.2   2.0 95   5 50.0   0.6 0.4   0.3 NNW | 328 1.5   0.6 0.00 0.00 51.8   1.5 46.9   5.3
Max     57.0 100 54.3 1.1 - 3.0 0.00 0.00 57.4 50.2
Avg     52.4 95 51.0 0.4 - 1.4 0.00 - - -
Min     50.0 82 49.7 0.0 - 0.0 0.00 0.00 51.0 44.6

Southern Napa County

23 Stations

15 Minute Data | America/Los_Angeles
as of 5/9/26 7:32 AM PDT
Station Date Time Temp (°F) RH (%) Dew Pt (°F) Wind Spd (mph) Wind Dir (°) Wind Gust (mph) Latest Rain (In) Daily Rain (In) Daily Max Temp (°F) Daily Min Temp (°F)
Carneros (Milton Rd) 5/9/26 0730 54.4   2.0 94   3 52.6   3.0 - - - 0.00 0.00 54.6   1.7 45.5   6.0
Carneros Lower (Ranch 81) 5/9/26 0730 53.7   1.6 100   7 53.7   3.7 0.3   0.2 S | 173 2.3   0.7 0.00 0.00 53.7   1.3 46.6   4.7
Carneros Upper (Ranch 81) 5/9/26 0730 53.4   2.9 90   90 50.7   107.5 0.2   4.3 SSE | 168 2.4   4.6 - - 53.4   2.2 50.1   0.2
Carneros (Mitsuko) 5/9/26 0730 53.3   1.6 - - - - - - - 53.8   1.2 43.3   7.7
Mount George (Napa East) 5/9/26 0730 56.4   2.5 92   5 54.2   1.0 1.2   0.2 SSE | 150 2.8   1.2 0.00 0.00 57.1   0.5 52.4   1.5
Napa-East (Palmaz 300') 5/9/26 0730 53.3   1.9 91   9 50.8   0.6 1.6   0.1 SW | 222 3.9   0.2 0.00 0.00 53.4   0.4 50.0   1.3
Napa-East (Palmaz 1200') 5/9/26 0730 50.2   1.5 61   14 36.7   4.5 0.2   1.0 E | 91 1.3   3.0 - - 51.4   1.3 45.5   2.8
Napa-East (Palmaz 1400') 5/9/26 0730 54.5   6.0 94   6 52.8   4.3 0.5   1.6 S | 176 3.2   2.9 0.00 0.00 55.8   6.1 47.4   0.3
Dealy Lane (Ranch 80) 5/9/26 0730 53.8   2.3 92   3 51.7   1.6 0.7   0.5 NNW | 338 2.3   0.6 0.00 0.00 53.8   1.2 48.3   2.5
Suscol Mtn (Ranch 93) 5/9/26 0730 50.7   2.7 99   1 50.4   2.4 1.3   5.6 NW | 304 3.7   6.9 0.00 0.00 51.7   2.4 49.8   2.1
Carneros (Saintsbury) 5/9/26 0730 51.0   2.3 100   0 51.0   2.3 0.8   1.8 N | 355 2.1   4.4 0.00 0.00 51.2   0.1 46.0   2.3
Sugarloaf West 5/9/26 0730 54.7   2.9 90   4 51.9   1.8 0.3   3.2 NNE | 12 1.1   4.8 0.00 0.00 54.7   1.4 49.7   1.6
Suscol Upper (Ranch 92) 5/9/26 0730 51.5   3.0 3   97 -27.0   75.6 0.0   3.1 N | 0 0.0   7.6 0.00 0.00 52.1   2.3 50.4   2.1
Stanly (Ranch 45) 5/9/26 0730 51.6   1.7 93   1 49.7   2.0 0.6   2.8 N | 360 2.2   4.0 0.00 0.00 52.0   0.5 45.7   3.6
Suscol Lower (Ranch 35) 5/9/26 0730 54.3   3.2 90   10 51.3   0.2 0.4   3.0 NE | 41 1.6   4.5 0.00 0.00 54.3   2.1 48.8   1.7
Napa-South (Toyon Farms) 5/9/26 0730 53.4   2.2 100   0 53.4   2.2 0.0   1.5 N | 0 0.0   3.4 0.00 0.00 53.6   0.5 49.4   1.5
Toyon Remote 1 5/9/26 0730 53.3   1.6 - - - - - - - 53.7   0.8 42.1   9.1
Toyon Remote 2 5/9/26 0730 54.2   2.3 - - - - - - - 54.5   0.7 45.4   6.0
Toyon Remote 3 5/9/26 0730 53.4   1.4 - - - - - - - 53.9   0.4 46.0   5.5
Napa-West Lower (Truchard) 5/9/26 0730 52.2   1.6 99   2 51.9   2.1 - - - - - 52.7   0.1 43.1   7.0
Napa-West Upper (Truchard) 5/9/26 0730 51.7   2.4 0   0 -64.9   1.7 0.0   3.7 N | 0 0.0   5.7 0.00 0.00 52.3   0.1 49.8   0.7
Mt. Veeder 5/9/26 0730 62.0   13.3 73   27 53.4   4.8 0.3   0.5 E | 99 2.1   0.5 0.00 0.00 63.8   10.5 52.6   6.2
Wooden Valley 5/9/26 0730 59.5   8.8 71   23 50.1   1.2 0.6   5.0 NNW | 346 3.0   6.5 0.00 0.00 60.6   6.6 51.6   2.6
Max     62.0 100 54.2 1.6 - 3.9 0.00 0.00 63.8 52.6
Avg     53.8 81 40.8 0.5 - 2.0 0.00 - - -
Min     50.2 0 -64.9 0.0 - 0.0 0.00 0.00 51.2 42.1